Temperature
21 20 20 19 19 19 21 22 22 22 21 22 22 21 21 20 20 20 19 20 20 20 19 19 19 19 19 19 19 19 19 19 19 19 19 19 19 19 19 18 18 19 19 18 18 18 18 18 18
21 20 20 20 19 20 21 22 22 22 22 22 22 21 20 19 19 20 20 20 20 20 19 19 19 19 19 19 19 19 19 19 19 19 19 19 19 19 19 18 18 18 18 18 18 18 18 18 18
21 20 20 19 20 20 22 22 22 22 22 22 21 21 20 20 20 20 20 20 20 20 19 19 19 19 19 19 19 19 19 19 19 19 19 19 19 18 18 18 18 18 18 18 18 18 18 18 18
21 20 20 20 21 22 22 22 22 22 22 22 21 20 20 20 20 20 20 20 20 20 19 19 19 19 19 19 19 19 19 19 19 19 19 19 19 18 18 18 18 18 18 18 18 18 18 18 18
21 21 20 20 22 22 22 23 23 22 22 21 21 20 20 20 20 20 20 20 20 20 19 19 19 19 19 19 19 19 19 19 19 19 19 19 18 18 18 18 18 18 18 18 18 18 18 18 18
21 20 20 21 22 23 23 23 22 22 22 21 21 20 19 20 20 20 20 20 20 20 19 19 19 19 19 19 19 18 19 19 18 18 19 19 18 18 18 18 18 18 18 18 18 18 18 18 18
21 20 21 21 22 23 23 23 22 22 22 22 21 19 19 20 20 20 20 20 20 19 19 19 19 19 19 19 18 19 19 19 19 19 19 18 18 18 18 18 18 18 18 18 18 18 18 18 18
22 20 21 21 22 23 23 23 23 22 22 22 21 20 19 20 20 20 20 20 19 19 19 19 19 19 19 19 19 19 19 19 19 19 18 18 18 18 18 18 18 18 18 18 18 18 18 18 18
22 20 21 22 23 23 23 23 23 23 22 22 21 21 21 20 20 20 20 19 19 19 19 19 19 19 19 19 19 19 19 19 19 19 18 18 18 18 18 18 18 18 18 18 18 18 18 18 18
22 20 22 23 23 23 23 23 23 22 22 21 21 21 21 20 20 20 20 20 20 19 19 19 19 19 19 19 19 19 19 19 19 18 18 18 18 18 18 18 18 18 18 18 18 18 18 18 18
22 22 23 24 24 24 24 23 23 22 21 21 21 21 20 20 20 20 20 20 20 20 19 19 19 19 19 19 19 19 19 19 18 18 18 18 18 18 18 18 18 18 18 18 18 18 18 18 18
23 23 24 24 25 24 24 23 23 22 23 23 23 22 21 20 20 20 20 20 20 20 20 19 19 19 19 19 19 19 19 19 18 18 18 18 18 18 18 18 18 18 18 18 18 18 18 18 18
23 24 24 25 25 24 24 23 23 23 23 23 22 21 21 21 20 20 20 20 20 20 20 20 19 19 19 19 19 19 19 18 18 18 18 18 18 18 18 18 18 18 18 18 18 18 18 18 18
24 24 24 24 25 24 24 23 23 23 23 22 21 21 21 21 21 20 20 20 20 20 20 20 20 19 19 19 19 19 19 18 18 18 18 18 18 18 18 17 17 17 17 18 18 18 18 18 18
24 23 24 24 24 24 24 23 22 23 22 21 21 21 21 20 21 20 21 20 20 20 20 20 20 19 19 19 19 19 19 18 18 18 18 18 18 18 17 17 17 17 17 17 18 18 18 18 18
24 23 23 24 24 24 24 23 23 23 22 21 21 20 20 20 21 21 21 21 20 20 20 20 20 19 19 19 19 19 18 18 18 18 18 18 17 17 17 17 17 17 17 17 17 17 17 17 17
22 22 23 24 24 24 23 22 22 22 22 21 21 20 20 20 20 21 21 21 21 20 20 20 20 19 19 19 19 18 18 18 18 18 18 18 17 17 17 17 17 17 17 17 17 17 17 17 17
23 23 23 23 24 23 23 22 22 22 21 21 21 20 20 20 21 21 21 21 21 20 20 20 20 19 19 19 18 18 18 18 18 18 18 17 17 17 17 17 17 17 17 17 17 17 17 17 17
24 23 23 23 24 23 22 22 22 21 21 21 20 20 20 20 21 21 21 21 21 20 20 20 20 19 19 19 18 18 18 18 18 18 18 17 17 17 17 17 17 17 17 17 17 17 17 17 17
24 23 23 23 24 23 22 22 22 22 21 21 21 21 20 20 21 21 21 21 21 21 20 20 20 19 19 19 19 18 18 18 18 18 17 17 17 17 17 17 17 17 17 17 17 17 17 17 17
23 23 23 23 23 23 23 22 22 22 22 22 22 21 21 21 21 21 21 21 21 21 21 20 20 19 19 19 18 18 18 18 18 18 17 17 17 17 17 17 17 17 17 17 17 17 17 17 17
23 24 24 23 22 21 22 21 22 21 21 21 21 21 21 21 21 21 21 21 21 21 21 20 20 20 19 19 18 18 18 18 18 18 17 17 17 17 17 17 17 17 17 17 17 17 17 17 17
24 24 23 23 21 21 21 21 21 20 21 21 21 21 22 22 22 22 22 22 22 21 21 20 20 20 19 19 19 18 18 18 18 17 17 17 17 17 17 17 17 17 17 17 17 17 17 17 17
24 23 22 20 20 21 21 21 21 20 21 21 21 21 22 22 22 22 22 22 22 21 21 20 20 20 19 19 19 18 18 18 18 17 17 17 17 17 17 17 17 17 17 17 17 17 17 17 16
23 22 21 21 20 21 20 21 20 21 21 22 21 22 22 22 22 22 22 22 22 21 21 21 20 20 20 19 19 18 18 18 18 17 17 17 17 17 17 17 17 17 17 17 16 16 16 16 16
23 22 21 22 21 20 20 20 21 22 22 22 22 22 22 22 22 22 22 22 22 22 21 21 21 20 20 19 19 18 18 18 18 17 17 17 17 17 17 17 17 16 16 16 16 16 16 16 16
23 21 21 20 20 20 20 20 21 21 21 21 21 21 21 22 22 22 22 22 22 22 21 21 21 20 20 19 19 19 18 18 18 17 17 17 17 17 17 17 16 16 16 16 16 16 16 16 16
23 20 19 19 20 21 21 21 20 21 21 21 20 20 21 22 22 22 22 22 22 21 21 21 20 20 20 19 19 18 18 18 18 17 17 17 17 16 16 16 16 16 16 16 16 16 16 16 16
22 21 18 17 18 19 20 21 21 20 20 20 20 20 21 21 21 21 21 21 21 21 21 20 20 20 19 19 19 18 18 18 18 17 17 17 17 16 16 16 16 16 16 16 16 16 16 16 15
22 21 19 20 19 18 19 20 21 20 20 20 20 21 21 21 21 21 21 21 21 20 20 20 20 20 19 19 19 18 18 18 18 17 17 17 16 16 16 16 16 16 16 16 16 16 15 15 15
Wind_Speed
5 5 3 1 2 3 2 3 1 3 2 1 4 5 5 4 1 2 0 3 4 4 4 7 8 10 11 11 11 11 10 11 12 13 13 13 12 12 12 12 12 12 11 10 10 10 10 10 10
4 4 1 2 3 3 3 2 2 2 3 3 4 5 5 4 3 3 1 2 4 4 5 6 9 10 10 11 11 10 10 10 12 13 12 12 12 11 11 11 12 11 10 10 10 10 9 9 8
5 3 1 3 2 2 1 1 3 4 3 2 3 4 3 2 2 2 2 4 4 4 5 6 9 10 10 10 10 10 10 11 12 13 12 12 11 11 10 10 11 11 10 9 9 9 8 7 8
2 1 2 4 2 1 2 2 4 4 3 5 4 4 3 2 2 3 5 5 5 4 5 6 9 10 10 10 10 10 11 12 12 12 11 11 11 10 10 9 9 9 9 8 8 7 6 6 6
1 2 4 3 2 1 1 3 2 4 3 4 4 4 3 4 5 7 7 6 5 4 4 6 9 9 9 10 10 10 11 11 11 11 11 10 9 9 9 9 8 8 7 7 6 6 5 5 5
2 3 4 2 2 1 1 2 3 5 4 4 4 4 2 2 6 6 6 5 4 4 3 5 8 9 9 9 9 9 10 10 10 9 9 9 8 8 7 7 7 7 6 6 5 5 4 4 4
2 3 2 0 0 0 1 2 2 4 4 3 4 4 2 2 4 6 6 5 5 4 4 4 5 6 7 8 8 8 8 8 8 8 7 7 6 6 6 5 5 5 5 5 5 4 4 3 3
2 3 2 1 1 2 2 2 2 4 3 4 4 6 4 4 6 7 6 6 5 4 4 4 4 4 4 5 6 7 7 7 7 6 6 5 5 4 4 4 4 4 4 4 4 3 3 3 2
2 4 1 2 3 2 2 2 2 3 5 3 2 3 5 10 10 8 6 4 4 3 3 3 3 3 3 4 4 5 6 5 5 5 5 5 3 3 2 2 2 2 2 2 2 3 3 2 2
3 2 3 3 4 3 2 3 3 3 4 3 5 7 11 11 10 8 7 5 4 3 2 2 2 3 3 3 3 3 4 4 4 3 4 3 3 2 2 2 1 1 1 1 1 2 2 2 2
3 3 3 2 2 4 3 2 3 6 2 5 8 12 13 11 9 8 7 5 4 3 3 2 2 2 3 2 3 3 3 3 3 3 3 3 3 3 3 3 3 3 3 3 3 3 2 2 2
2 3 3 2 1 3 4 4 3 4 4 6 12 15 14 12 10 8 7 6 4 3 3 2 2 2 2 2 2 2 2 2 2 2 2 2 2 2 2 2 2 3 2 3 3 2 2 2 2
1 2 2 1 1 2 4 3 3 1 3 9 12 13 13 11 9 6 5 5 4 4 3 3 3 3 2 2 1 2 2 2 1 1 1 2 1 1 1 2 2 2 2 2 2 2 2 2 1
1 1 2 2 1 2 4 2 3 2 7 10 12 11 11 11 9 7 5 5 5 5 4 4 3 3 3 2 2 2 2 2 2 1 1 2 2 1 0 1 1 1 1 1 1 1 1 1 1
1 3 4 2 2 2 5 2 1 4 9 10 10 10 10 9 8 9 9 7 6 5 4 4 5 3 3 2 2 2 2 3 2 2 2 2 2 2 1 1 1 1 1 1 2 2 2 1 1
3 3 2 3 2 2 5 2 3 7 10 9 9 10 9 8 8 8 8 7 6 5 5 5 5 4 3 3 2 1 2 2 2 2 2 2 2 2 2 1 0 1 1 1 1 1 2 1 1
4 2 2 3 0 2 3 3 4 7 9 9 10 10 9 8 7 7 8 7 7 6 6 5 4 5 4 3 2 2 2 2 2 2 2 2 2 3 3 1 0 1 1 1 1 2 1 1 1
3 2 2 3 2 2 1 4 4 7 9 9 8 9 9 10 10 8 8 7 7 6 5 5 4 4 4 3 3 2 2 1 1 1 1 2 2 3 3 2 1 1 1 1 1 2 2 1 1
3 2 4 5 2 1 3 5 5 7 8 9 9 9 10 10 7 7 7 7 7 6 5 5 5 4 4 3 2 2 1 0 0 1 1 2 2 3 3 2 1 2 1 1 1 1 2 2 2
2 2 3 3 1 1 2 5 5 7 10 10 11 11 11 8 7 7 7 7 8 8 7 6 6 6 5 3 3 2 2 1 1 0 0 1 2 3 3 2 2 2 2 1 1 1 1 1 2
4 5 5 3 3 3 1 5 3 4 5 6 7 8 9 11 11 9 9 8 8 8 8 8 7 6 5 5 3 3 2 2 1 1 0 0 1 2 2 3 2 2 2 1 1 1 2 1 1
6 6 5 3 2 2 1 3 6 4 4 7 7 7 8 9 9 9 9 9 9 9 8 7 7 7 6 6 5 5 4 3 2 1 1 0 1 1 2 2 2 2 2 2 1 1 1 2 1
6 0 3 3 3 1 1 2 8 2 5 8 8 9 8 8 9 10 11 11 9 8 8 7 7 6 6 6 6 5 4 3 1 1 1 0 0 0 1 2 2 2 1 2 1 1 1 2 2
3 6 6 6 4 1 3 3 7 4 7 6 8 9 9 9 9 9 8 8 7 7 7 7 7 6 6 6 6 6 6 5 3 2 1 0 0 0 0 1 2 2 2 2 2 2 2 2 2
5 6 4 4 3 5 2 3 8 6 6 8 8 9 9 8 8 8 8 8 8 8 8 8 8 7 6 6 6 7 7 6 6 4 3 2 1 1 2 1 1 2 2 2 2 2 2 2 2
5 8 7 5 5 5 1 5 7 5 5 4 5 6 7 7 7 7 8 9 9 9 8 8 8 7 7 7 6 6 6 5 4 4 4 3 3 3 2 2 2 2 2 3 2 2 2 2 2
6 4 5 6 2 1 5 6 7 3 2 1 3 5 6 6 7 7 7 7 7 8 8 8 8 7 7 7 6 5 5 5 5 4 3 3 3 3 2 2 2 2 3 3 2 2 2 2 2
4 8 6 6 4 3 5 5 5 5 4 2 3 4 4 4 4 4 4 5 5 6 6 6 6 7 6 6 6 6 5 5 5 4 4 3 3 3 2 2 3 3 3 3 3 3 2 2 2
3 4 5 5 5 5 4 7 5 7 5 5 5 5 6 5 5 5 4 4 5 4 5 5 5 5 5 5 5 5 5 4 4 4 4 4 4 4 3 3 3 3 3 3 3 3 3 3 2
4 6 7 5 4 5 4 7 5 4 3 4 4 4 4 5 5 5 5 4 4 4 4 5 5 6 5 5 5 5 4 4 4 4 4 4 4 4 4 3 3 3 4 3 3 4 3 3 3
Wind_Direction
188 156 148 133 51 41 8 325 5 40 41 50 87 87 95 84 102 146 355 130 124 131 144 142 139 136 138 138 136 136 139 140 141 140 141 142 143 142 143 144 143 142 141 139 136 134 134 134 134
161 164 160 62 69 40 337 320 59 79 134 123 78 69 70 62 61 98 106 126 120 131 133 139 135 134 135 133 133 134 135 136 139 139 139 139 140 140 143 145 144 144 144 143 142 142 141 139 138
171 193 87 62 73 153 240 338 116 108 107 79 70 59 73 80 99 127 140 124 110 122 131 144 139 136 134 130 127 127 127 130 134 135 136 135 135 137 139 141 145 146 147 148 148 148 147 143 142
163 87 52 58 35 261 192 190 138 120 67 56 84 69 60 51 129 127 116 114 104 108 131 148 141 136 132 128 122 119 119 125 130 131 130 132 133 133 135 139 145 149 153 153 152 149 147 146 145
94 75 52 40 347 324 158 157 131 101 77 69 89 89 40 10 89 108 114 113 109 104 122 143 142 136 131 127 121 116 114 117 121 125 128 129 132 133 134 137 142 146 151 150 144 138 141 143 141
59 65 66 28 359 15 118 129 112 92 94 101 100 98 50 69 100 113 110 104 100 100 106 134 139 135 132 128 124 119 116 117 118 122 124 126 130 135 138 140 143 144 146 145 143 141 137 133 135
93 78 95 221 341 356 167 110 119 116 107 125 124 104 90 110 110 109 99 94 88 85 83 104 122 128 128 126 125 123 119 119 120 121 123 127 130 136 140 142 144 146 148 150 148 145 146 145 141
130 89 39 314 178 230 150 104 96 111 113 113 115 134 168 165 122 102 92 85 85 77 74 85 98 108 114 124 128 125 122 122 123 121 121 121 119 128 132 137 142 149 154 154 150 150 147 145 146
110 67 334 236 190 219 141 114 96 80 104 105 96 133 142 134 123 111 103 93 97 97 73 83 97 102 110 125 133 129 126 122 118 113 110 95 77 78 106 126 142 149 147 144 140 139 149 138 124
106 129 238 224 192 168 156 144 145 110 107 95 79 93 120 130 134 136 139 140 140 140 121 98 108 110 119 131 111 100 104 104 100 95 88 79 69 51 57 56 94 104 86 75 92 114 118 100 77
156 196 247 270 203 155 150 140 134 134 176 185 158 147 143 143 148 153 156 156 161 157 144 124 122 128 130 119 112 102 95 93 91 88 88 81 64 41 32 25 24 31 34 31 31 40 53 79 79
173 255 238 269 160 142 158 146 133 169 213 170 155 151 151 157 166 168 165 165 155 148 156 145 138 132 142 133 126 116 110 104 103 94 98 94 77 39 16 22 20 23 21 25 28 38 51 62 82
186 284 316 281 67 131 127 138 141 178 127 128 137 146 157 166 169 165 160 162 159 165 174 167 150 150 145 130 138 121 125 123 117 98 111 123 124 70 15 13 16 15 27 36 25 34 62 61 67
217 323 328 347 56 101 117 106 101 166 132 136 148 159 168 170 168 161 162 173 176 178 182 172 164 161 144 134 133 138 148 146 132 143 183 179 176 175 123 32 14 2 8 15 33 39 86 76 94
84 32 360 6 69 113 110 67 204 169 142 151 165 170 171 174 172 178 180 183 183 183 177 172 174 156 147 146 156 161 166 154 156 185 192 185 191 181 163 110 21 342 12 47 60 61 76 96 100
41 47 359 312 60 103 117 216 219 162 153 166 179 179 177 179 182 185 180 180 182 177 175 178 175 158 160 159 151 146 149 153 173 178 168 176 182 169 150 124 24 355 43 71 83 76 72 64 70
25 8 293 301 293 109 129 227 218 168 164 180 188 186 183 182 190 191 186 183 183 182 178 175 166 162 167 157 138 127 121 137 165 163 167 181 166 158 145 140 136 75 69 59 83 67 83 69 50
249 265 271 263 272 100 182 241 225 186 182 191 191 189 189 194 201 193 186 180 177 178 176 174 169 163 157 135 114 101 89 91 121 153 187 175 166 159 147 150 141 111 87 64 64 76 68 75 74
191 208 259 259 232 147 235 243 230 197 192 198 195 194 198 204 199 185 182 178 171 171 167 169 169 171 156 140 141 141 163 186 90 213 207 186 173 163 152 141 120 108 108 100 78 84 74 50 60
193 236 265 299 35 141 260 267 232 199 204 206 198 198 200 198 190 189 187 180 181 182 179 176 180 178 172 167 157 145 141 147 161 282 114 187 180 174 167 156 151 139 121 89 70 89 92 62 67
236 210 225 226 8 27 8 315 269 237 217 212 205 199 197 199 199 195 191 190 187 187 188 190 187 181 175 160 129 105 86 66 65 47 9 271 172 162 161 162 158 153 145 155 176 142 142 147 72
256 236 199 158 99 309 58 288 285 250 233 220 215 207 205 206 200 195 191 192 193 194 189 186 181 180 176 161 153 150 159 174 203 195 196 37 146 175 174 163 158 158 157 170 203 166 161 154 164
227 187 128 123 124 33 345 194 283 275 243 237 219 209 205 201 197 195 194 194 194 188 183 178 175 179 175 169 171 164 167 178 165 127 107 77 19 51 169 163 154 163 176 191 188 158 151 158 164
162 69 57 54 77 294 239 186 273 240 225 230 217 210 203 197 195 194 192 188 187 180 176 172 173 185 181 175 175 173 174 169 157 166 177 220 249 356 95 157 158 169 188 205 204 190 174 174 164
107 96 41 4 6 252 254 212 252 253 236 221 213 209 201 192 188 188 184 182 185 182 181 178 177 187 184 178 183 185 183 177 182 190 194 195 210 235 241 205 191 198 211 213 201 190 194 187 186
165 147 161 196 219 266 279 237 258 275 267 231 201 190 182 180 184 188 187 187 190 188 184 182 182 187 182 181 190 192 185 187 198 196 190 195 212 228 233 213 210 215 208 217 203 202 214 196 210
144 168 161 136 145 248 273 281 301 319 350 70 147 159 176 181 186 186 182 185 187 188 186 183 181 185 184 184 184 189 190 192 198 196 193 200 216 230 225 224 224 222 212 211 196 211 222 200 212
137 143 109 126 154 243 280 272 257 274 267 233 176 172 181 176 178 174 172 177 175 180 179 169 174 182 184 182 187 195 199 201 196 184 196 208 227 240 228 239 239 236 228 219 207 220 223 210 230
117 103 108 117 148 163 240 267 233 223 231 215 207 194 187 180 175 171 164 165 159 157 164 170 178 180 183 186 187 190 193 191 187 194 207 213 221 222 223 233 239 245 240 229 215 225 223 221 237
163 163 148 156 206 178 186 262 280 208 224 209 207 195 177 164 167 167 154 146 147 162 171 175 180 185 193 192 191 197 198 186 189 201 209 209 219 223 224 230 234 247 248 233 221 228 225 218 231
Height
1493 1493 1494 1496 1498 1504 1506 1499 1493 1493 1493 1493 1493 1493 1495 1498 1501 1506 1501 1500 1500 1500 1501 1502 1502 1503 1503 1504 1504 1504 1504 1505 1506 1509 1511 1513 1515 1517 1519 1520 1521 1523 1525 1526 1527 1528 1530 1531 1532
1494 1494 1496 1496 1503 1514 1509 1497 1495 1493 1494 1494 1494 1495 1496 1498 1499 1500 1500 1501 1501 1502 1502 1503 1504 1504 1505 1505 1505 1504 1503 1502 1504 1508 1512 1514 1516 1518 1519 1521 1522 1524 1526 1527 1528 1530 1531 1532 1533
1494 1495 1497 1498 1505 1511 1506 1496 1494 1494 1494 1494 1496 1497 1498 1500 1500 1500 1501 1502 1502 1503 1504 1504 1505 1506 1506 1506 1506 1505 1502 1502 1504 1509 1512 1515 1517 1519 1520 1522 1523 1525 1527 1528 1530 1531 1532 1533 1534
1495 1496 1498 1502 1506 1501 1498 1495 1493 1494 1495 1495 1497 1499 1500 1502 1502 1502 1502 1503 1503 1504 1505 1506 1507 1508 1508 1508 1508 1507 1504 1504 1507 1511 1514 1517 1519 1520 1522 1523 1524 1526 1528 1530 1531 1532 1533 1534 1535
1496 1496 1502 1507 1504 1498 1494 1494 1494 1494 1495 1497 1498 1500 1502 1504 1504 1504 1504 1505 1505 1506 1506 1507 1508 1509 1510 1511 1510 1510 1509 1510 1512 1515 1517 1519 1521 1522 1523 1524 1526 1527 1529 1531 1532 1533 1534 1535 1536
1497 1497 1509 1513 1505 1497 1495 1495 1495 1495 1497 1498 1499 1501 1504 1505 1505 1506 1507 1507 1508 1508 1508 1507 1510 1511 1513 1513 1514 1514 1514 1515 1516 1518 1519 1521 1523 1524 1525 1526 1527 1529 1530 1531 1532 1533 1534 1536 1537
1498 1501 1508 1508 1505 1500 1496 1496 1496 1496 1497 1499 1500 1502 1505 1506 1507 1508 1509 1509 1510 1510 1509 1509 1511 1513 1515 1516 1516 1517 1518 1518 1519 1521 1522 1523 1524 1526 1526 1527 1529 1530 1531 1532 1533 1534 1535 1536 1537
1498 1502 1506 1507 1505 1501 1496 1497 1498 1497 1499 1500 1501 1502 1505 1506 1508 1509 1510 1511 1512 1513 1513 1513 1514 1516 1517 1518 1519 1520 1520 1521 1522 1523 1524 1525 1526 1527 1528 1529 1530 1531 1532 1532 1533 1535 1536 1537 1538
1498 1506 1510 1505 1502 1499 1496 1497 1498 1499 1499 1501 1502 1503 1504 1506 1508 1510 1511 1512 1513 1515 1516 1516 1517 1518 1519 1520 1521 1522 1522 1523 1524 1525 1526 1527 1527 1528 1529 1530 1530 1531 1532 1533 1534 1535 1536 1537 1538
1498 1508 1503 1497 1495 1495 1496 1496 1498 1499 1501 1502 1502 1503 1505 1507 1509 1510 1512 1513 1514 1516 1517 1518 1519 1520 1521 1522 1522 1523 1524 1525 1526 1526 1527 1528 1529 1529 1530 1530 1531 1532 1533 1534 1534 1535 1537 1538 1539
1497 1500 1496 1493 1493 1493 1495 1497 1498 1499 1501 1501 1501 1502 1505 1507 1509 1511 1513 1514 1516 1518 1519 1520 1521 1522 1522 1523 1524 1525 1526 1526 1527 1528 1529 1529 1530 1530 1531 1531 1532 1533 1534 1534 1535 1536 1537 1538 1539
1497 1495 1494 1493 1492 1493 1495 1496 1498 1498 1499 1499 1500 1502 1504 1507 1509 1511 1514 1516 1517 1519 1520 1521 1522 1523 1524 1524 1525 1526 1527 1528 1528 1529 1530 1530 1531 1531 1532 1532 1533 1534 1534 1535 1535 1536 1537 1538 1539
1497 1495 1494 1493 1492 1493 1495 1497 1498 1499 1499 1500 1502 1504 1506 1508 1510 1513 1516 1517 1519 1520 1521 1522 1523 1524 1525 1525 1526 1527 1528 1528 1529 1530 1531 1531 1532 1532 1533 1534 1534 1535 1535 1536 1537 1537 1538 1538 1539
1496 1495 1494 1493 1493 1494 1496 1498 1499 1500 1500 1501 1503 1505 1507 1509 1511 1514 1516 1517 1519 1520 1522 1523 1524 1525 1525 1526 1527 1528 1528 1529 1530 1530 1531 1532 1532 1533 1534 1534 1535 1535 1536 1537 1537 1537 1538 1538 1539
1496 1497 1496 1494 1494 1495 1497 1501 1500 1500 1501 1503 1504 1505 1508 1510 1512 1513 1515 1517 1519 1521 1522 1523 1524 1525 1526 1526 1527 1528 1529 1530 1530 1531 1532 1532 1533 1534 1534 1535 1536 1536 1536 1537 1537 1537 1537 1538 1538
1497 1502 1506 1497 1495 1495 1501 1508 1499 1499 1501 1503 1504 1506 1507 1509 1511 1513 1515 1517 1519 1521 1522 1523 1524 1525 1526 1527 1527 1528 1529 1530 1531 1531 1532 1533 1533 1534 1535 1535 1536 1536 1537 1537 1537 1537 1537 1538 1538
1506 1512 1509 1502 1495 1496 1500 1504 1498 1498 1500 1501 1503 1505 1507 1509 1511 1512 1514 1516 1519 1520 1522 1523 1524 1525 1526 1527 1528 1529 1529 1530 1531 1532 1532 1533 1533 1534 1535 1535 1536 1536 1537 1537 1537 1537 1537 1537 1537
1512 1511 1509 1506 1497 1498 1501 1502 1498 1498 1499 1500 1502 1504 1506 1507 1509 1511 1514 1516 1518 1520 1521 1523 1524 1525 1526 1527 1528 1529 1529 1530 1531 1531 1532 1533 1533 1534 1535 1535 1536 1536 1536 1537 1537 1537 1537 1537 1537
1502 1506 1509 1503 1496 1499 1502 1501 1497 1497 1498 1499 1500 1502 1503 1505 1508 1510 1512 1514 1516 1518 1520 1521 1523 1524 1525 1526 1527 1528 1529 1530 1530 1531 1532 1532 1533 1534 1534 1535 1535 1536 1536 1536 1537 1537 1537 1537 1537
1501 1507 1507 1501 1496 1499 1502 1500 1495 1494 1494 1495 1496 1499 1501 1503 1506 1508 1510 1512 1514 1516 1518 1520 1521 1523 1524 1525 1526 1527 1528 1529 1530 1531 1531 1532 1533 1533 1534 1534 1535 1535 1536 1536 1536 1536 1536 1536 1537
1501 1504 1504 1504 1500 1500 1503 1504 1497 1493 1493 1494 1495 1497 1499 1501 1503 1505 1507 1509 1511 1513 1516 1518 1520 1521 1523 1524 1526 1527 1527 1528 1529 1530 1531 1531 1532 1533 1533 1534 1534 1535 1535 1535 1535 1536 1536 1536 1536
1503 1493 1495 1499 1508 1515 1509 1522 1502 1496 1494 1493 1494 1495 1496 1498 1500 1502 1504 1507 1509 1511 1514 1516 1518 1520 1521 1523 1524 1525 1526 1527 1528 1529 1530 1531 1532 1532 1533 1534 1534 1534 1534 1534 1535 1535 1535 1535 1535
1493 1489 1494 1499 1509 1516 1513 1520 1510 1497 1496 1492 1490 1491 1493 1495 1497 1499 1501 1504 1507 1509 1511 1514 1516 1518 1520 1521 1522 1524 1525 1526 1528 1528 1529 1530 1531 1532 1532 1533 1533 1533 1534 1534 1534 1534 1534 1534 1535
1487 1493 1500 1508 1515 1526 1515 1520 1514 1500 1492 1487 1486 1488 1489 1492 1494 1496 1499 1502 1505 1507 1509 1512 1514 1516 1517 1519 1521 1522 1523 1525 1526 1527 1528 1529 1530 1530 1531 1532 1532 1532 1532 1533 1533 1533 1533 1533 1533
1489 1506 1524 1527 1533 1529 1514 1517 1509 1488 1484 1482 1482 1484 1486 1488 1491 1493 1496 1499 1502 1505 1507 1509 1511 1513 1515 1517 1519 1520 1522 1523 1525 1526 1527 1528 1528 1529 1530 1530 1530 1530 1531 1531 1531 1531 1531 1532 1532
1491 1500 1522 1533 1535 1527 1516 1516 1498 1483 1480 1478 1480 1482 1484 1486 1489 1491 1494 1496 1499 1502 1505 1507 1509 1511 1513 1515 1517 1519 1520 1522 1523 1524 1525 1526 1527 1528 1528 1528 1528 1528 1529 1529 1529 1529 1529 1530 1530
1491 1498 1499 1517 1523 1528 1521 1509 1492 1481 1479 1478 1479 1481 1482 1485 1487 1490 1492 1495 1497 1500 1502 1504 1507 1509 1511 1513 1515 1517 1519 1520 1521 1522 1523 1524 1525 1526 1526 1526 1526 1526 1526 1527 1527 1527 1527 1527 1527
1483 1492 1506 1517 1529 1532 1521 1512 1504 1488 1483 1480 1480 1480 1481 1484 1486 1488 1490 1493 1495 1498 1500 1502 1505 1507 1509 1511 1513 1515 1516 1518 1519 1520 1521 1522 1522 1523 1524 1524 1524 1524 1524 1524 1524 1524 1524 1524 1525
1488 1494 1503 1514 1517 1529 1531 1515 1486 1484 1481 1479 1478 1479 1480 1482 1484 1486 1489 1491 1494 1496 1498 1500 1503 1505 1507 1509 1511 1512 1514 1515 1516 1517 1518 1519 1520 1520 1520 1521 1521 1521 1521 1521 1521 1521 1521 1521 1521
1480 1487 1498 1509 1516 1520 1523 1511 1478 1478 1477 1477 1477 1478 1479 1480 1483 1486 1488 1490 1492 1494 1496 1498 1501 1502 1504 1506 1508 1510 1511 1513 1514 1515 1515 1516 1517 1518 1517 1518 1518 1518 1518 1517 1518 1518 1518 1518 1519